Wind_Speed
30 30 28 27 27 25 24 24 25 25 25 24 24 23 22 18 16 15 15 14 14 14 13 12 13 13 14 14 13 12 10 7 6 8 8 6 4 1 0 3 5 7 9 12 13 14 14 15 16 16 17 18 18 18 17 17 19 21 22 22 23 23 24 24 24 23 22 22 22
31 30 29 28 29 27 26 25 26 27 27 26 26 26 25 22 19 18 17 16 15 14 13 11 11 12 13 12 12 12 10 7 6 7 8 6 5 3 1 3 5 7 8 11 13 13 13 14 15 16 17 17 17 16 15 15 17 19 20 21 22 23 24 24 24 23 23 23 23
31 31 30 29 30 29 27 26 27 28 28 27 28 28 27 25 23 22 22 21 20 19 16 12 11 11 12 11 11 10 9 6 5 6 6 6 6 4 3 4 5 6 7 10 12 12 12 13 14 15 15 16 16 14 14 14 16 18 18 19 20 21 23 23 23 24 23 23 23
31 31 31 30 30 29 27 26 27 28 28 27 28 29 29 27 26 25 24 24 25 24 20 16 12 11 11 11 10 9 7 3 2 4 6 7 7 7 6 5 5 5 6 8 10 11 11 11 12 13 14 14 14 14 14 15 17 17 17 17 18 19 21 22 23 23 23 23 23
31 30 30 29 29 29 28 28 28 28 28 28 29 30 30 29 28 28 27 25 25 25 24 20 15 12 10 10 10 9 6 3 1 3 6 8 9 9 8 6 6 6 6 8 9 10 10 10 10 11 12 13 13 14 15 17 18 17 16 16 16 17 19 20 21 22 23 23 23
30 30 30 29 29 29 29 29 29 28 28 29 31 32 31 30 30 29 28 26 25 26 26 24 20 16 12 9 8 7 6 4 2 3 5 7 9 10 9 8 8 7 7 8 9 9 9 9 10 10 11 12 13 14 16 18 18 17 16 15 15 17 18 19 20 21 22 22 22
28 29 30 29 29 28 28 29 29 30 30 31 32 33 33 32 31 30 29 28 27 28 28 27 25 22 17 13 10 7 4 3 2 2 3 5 7 8 8 8 9 10 10 10 10 9 9 9 9 10 11 12 12 14 16 17 18 18 17 15 16 17 18 19 20 21 22 22 22
30 30 30 30 29 28 28 28 29 30 31 31 32 33 33 33 32 32 31 30 29 29 28 29 28 25 22 18 15 11 7 3 1 1 2 3 4 5 6 7 9 11 11 12 12 12 11 10 10 10 10 11 12 14 15 17 18 18 17 16 16 17 18 20 21 21 22 22 22
32 32 31 31 30 29 28 27 28 29 31 31 32 32 33 33 33 32 32 31 30 30 29 29 29 27 24 21 19 16 12 8 4 1 1 1 2 3 4 6 8 10 11 12 13 13 12 11 10 9 9 10 12 14 16 17 18 18 17 16 16 17 18 20 21 22 22 22 22
32 32 31 31 30 29 28 27 28 30 31 31 32 32 32 33 33 32 31 31 31 31 31 30 29 28 26 24 21 19 16 13 9 5 2 2 3 4 6 7 8 9 10 11 11 12 12 11 9 8 8 11 13 15 16 18 18 17 16 16 16 17 18 19 21 22 22 22 22
31 31 31 30 29 29 28 28 28 30 31 32 32 32 32 33 32 32 32 32 33 33 32 30 29 28 27 25 23 21 18 16 13 9 6 3 3 4 5 6 7 8 9 10 10 11 11 10 9 8 9 11 14 15 16 18 18 17 17 16 17 18 19 19 20 21 22 23 22
31 31 31 30 29 29 28 28 28 29 31 31 32 32 32 32 32 32 32 33 33 33 32 31 30 28 27 25 23 21 19 17 15 13 11 8 5 4 4 4 5 7 8 9 10 11 11 11 10 9 10 12 14 15 16 17 18 18 17 17 17 18 19 19 20 21 23 23 23
32 32 32 31 31 29 28 28 27 28 30 31 32 32 31 31 31 32 32 32 32 33 32 32 30 29 28 26 24 22 20 18 17 15 14 13 10 8 6 5 4 4 5 7 8 9 10 11 11 11 11 13 14 14 15 16 17 18 18 17 17 18 19 20 21 22 23 23 23
34 34 33 33 32 31 29 28 26 27 29 31 31 31 31 31 31 31 31 31 31 31 32 32 31 30 28 26 25 23 21 19 18 17 16 14 13 12 10 8 6 5 4 4 5 6 8 9 10 11 12 13 13 13 13 15 16 18 18 18 17 18 19 20 21 22 23 23 23
34 34 34 34 33 32 30 28 26 27 29 30 30 31 31 31 31 31 31 30 30 30 31 31 31 30 29 27 26 24 23 21 19 18 17 16 14 13 12 11 10 8 6 4 2 3 5 7 9 10 11 11 11 11 11 13 15 16 18 18 18 19 19 20 22 23 23 23 23
34 34 34 34 33 32 31 28 27 27 28 28 29 30 30 31 31 31 30 30 29 29 30 30 31 31 30 29 28 27 25 23 20 19 17 16 15 14 13 13 12 11 9 7 5 2 2 4 6 7 8 9 9 9 10 11 13 14 16 17 18 19 20 21 22 23 23 23 23
34 34 34 34 33 32 30 29 27 26 26 27 28 29 30 30 30 30 30 30 30 29 29 29 30 31 31 31 30 29 27 25 23 20 18 16 15 14 14 13 13 12 11 9 7 5 2 1 3 5 6 6 7 8 9 10 11 12 13 14 16 18 19 20 21 22 23 23 23
34 34 33 33 32 31 30 29 27 26 26 26 27 28 28 29 30 30 30 30 30 30 29 29 30 31 32 32 31 31 29 27 25 23 19 16 14 13 14 14 13 12 12 11 9 7 5 2 1 3 4 5 6 7 8 9 10 11 11 12 14 16 18 19 21 21 22 22 23
32 32 32 32 31 31 30 29 28 27 26 25 26 26 27 28 29 30 30 30 30 30 30 30 31 32 32 32 32 31 30 29 27 25 22 19 15 13 12 12 12 12 12 11 11 9 7 5 2 2 3 5 6 7 8 9 9 10 11 11 13 14 16 18 19 20 20 22 22
30 31 30 30 30 30 29 29 28 27 26 25 26 26 26 27 28 29 30 30 30 30 30 31 31 32 32 31 31 31 30 29 28 27 25 23 19 16 13 11 11 11 11 12 11 11 9 7 4 2 2 4 5 6 7 8 8 9 10 10 12 13 14 16 16 17 18 20 21
29 29 29 29 29 29 29 28 28 27 27 27 26 26 26 26 27 28 29 28 28 29 30 30 31 31 31 30 30 29 29 28 29 28 27 26 24 22 18 15 12 11 10 10 11 11 10 9 6 4 2 3 4 6 7 7 8 9 9 10 10 11 12 13 14 15 16 17 19
27 27 27 28 28 29 29 29 29 29 28 28 28 27 26 26 26 26 27 27 27 28 29 29 29 29 29 29 28 28 28 28 28 28 28 28 28 26 24 22 19 17 14 12 10 9 10 10 8 5 2 2 3 4 6 7 8 8 9 9 10 10 11 12 12 13 14 15 17
26 26 27 27 28 29 29 30 30 30 29 29 28 28 27 26 25 25 26 26 27 28 28 28 28 28 28 28 28 28 27 28 28 28 28 28 28 28 27 26 26 25 23 20 14 10 8 9 8 7 4 1 2 3 4 6 7 8 9 9 9 10 10 11 12 12 13 13 15
25 26 26 27 28 29 29 30 30 30 30 29 29 28 27 26 25 24 25 26 26 27 27 26 26 27 27 27 28 28 27 27 28 28 28 28 28 28 27 27 27 28 28 27 21 14 9 9 9 9 7 4 2 1 2 4 5 6 7 8 9 9 10 10 10 11 11 12 13
25 25 26 27 27 28 29 30 30 30 29 29 28 28 27 26 25 24 24 25 26 25 25 25 25 26 26 27 28 28 27 27 27 27 27 27 27 27 27 26 27 28 29 28 25 19 13 10 10 9 9 7 5 3 2 2 3 5 6 7 7 8 8 8 8 9 9 10 10
25 26 26 26 27 28 28 29 29 29 28 28 28 28 28 26 25 23 23 24 25 24 24 24 25 25 25 26 27 28 27 27 26 26 26 27 27 26 26 25 26 27 28 28 26 23 19 14 11 9 8 7 6 4 3 2 3 3 4 5 5 6 6 6 6 6 7 7 8
25 25 25 26 26 27 27 27 28 28 28 28 28 28 27 27 25 24 23 24 25 24 24 23 24 24 23 24 26 26 27 26 26 26 26 26 26 26 25 25 25 26 27 27 26 24 22 19 14 10 7 6 5 4 3 2 2 2 3 4 3 4 4 4 5 5 5 5 6
25 25 25 25 26 26 26 27 27 27 27 27 26 26 27 27 26 25 24 24 25 25 24 24 23 22 22 23 24 25 25 25 25 25 25 25 25 25 25 24 25 26 27 26 26 25 23 21 17 13 8 6 5 4 3 2 2 2 3 4 3 3 4 4 4 4 4 5 5
24 24 24 24 25 25 25 25 26 26 25 25 25 25 26 27 27 25 24 24 25 24 24 23 22 22 22 23 23 23 23 24 25 25 25 24 25 25 24 24 25 26 26 26 26 25 24 22 19 15 11 6 5 6 5 4 3 3 4 5 5 5 5 5 4 5 5 5 5
24 24 24 24 24 24 24 24 24 24 24 24 24 24 25 26 26 26 24 24 23 23 22 22 21 22 23 23 23 23 23 24 24 25 25 24 24 24 24 24 25 26 26 26 26 25 25 24 21 18 12 7 4 5 7 7 6 6 6 6 6 7 7 7 6 6 6 7 7
23 23 23 23 23 23 23 23 23 23 23 23 23 23 24 24 24 24 23 22 22 22 22 22 22 23 23 23 23 23 23 24 24 25 24 24 24 23 23 23 24 25 25 25 25 25 25 25 23 21 16 10 5 3 5 8 9 9 8 8 8 8 9 9 8 8 8 8 8
23 23 22 22 22 22 22 22 22 22 22 22 22 22 22 21 21 21 21 21 22 22 23 23 23 23 23 23 23 23 23 24 24 24 24 23 23 23 22 23 24 24 25 24 24 24 25 25 24 23 19 15 9 5 4 6 9 11 11 10 10 9 10 10 10 10 10 10 10
22 22 22 22 22 22 22 22 21 21 21 21 21 20 20 19 19 20 20 20 20 21 22 22 22 22 22 23 23 23 23 23 23 23 23 23 23 22 22 23 24 24 24 24 23 24 24 24 24 23 21 18 14 11 8 6 6 10 12 13 12 11 11 11 11 11 11 11 11
22 22 21 21 21 21 21 21 21 21 20 20 20 19 19 18 19 19 19 19 19 19 19 20 20 20 20 20 21 21 22 21 23 23 23 23 23 22 22 22 24 24 23 23 23 23 24 24 24 23 22 20 17 15 13 11 8 7 10 13 14 14 14 13 12 12 12 12 12
21 21 21 20 20 21 21 21 21 20 20 19 19 19 18 18 18 18 18 18 17 18 18 18 18 18 19 19 19 20 21 22 22 23 23 23 23 22 22 22 24 24 23 23 23 23 23 24 24 24 22 21 19 17 16 14 13 11 9 10 13 16 16 16 15 14 14 13 13
20 20 19 20 20 20 20 20 20 19 19 19 18 18 18 17 17 17 17 17 17 18 18 18 18 19 19 19 19 19 20 21 21 21 22 22 22 22 22 22 24 25 24 23 23 23 23 23 24 23 23 22 20 19 18 16 16 15 13 11 10 13 16 17 18 17 16 16 16
19 18 18 18 19 19 19 19 19 18 18 17 17 17 16 16 16 17 17 17 17 18 18 18 18 19 19 19 18 18 19 20 20 20 21 21 22 22 22 22 24 25 25 23 23 22 22 23 23 23 23 22 21 20 19 18 17 17 16 15 13 10 12 15 18 19 19 19 19
17 17 17 17 17 18 18 18 17 17 16 16 16 15 15 15 15 16 16 16 17 17 17 17 17 18 18 17 17 17 18 18 19 20 20 20 21 21 21 22 23 25 25 24 23 22 22 22 22 23 23 23 22 20 19 19 19 18 18 17 16 14 11 11 14 18 20 21 21
16 16 15 15 16 17 17 16 16 16 15 15 15 15 15 15 15 15 15 15 16 16 16 16 16 16 16 16 16 17 17 18 19 19 19 19 20 20 20 21 23 24 25 24 23 22 22 22 22 22 23 23 21 20 19 18 18 18 18 18 17 16 15 12 10 12 17 20 22
15 15 14 14 14 15 16 16 15 15 15 15 15 14 14 14 13 14 14 14 15 15 15 15 15 16 16 15 16 16 17 18 19 19 18 18 19 19 20 21 23 24 25 24 23 22 22 22 22 22 22 22 21 20 18 18 18 18 18 18 18 18 17 16 14 11 12 16 20
15 14 13 13 13 14 15 15 15 15 14 14 14 14 13 13 13 13 13 14 14 14 15 14 15 15 15 15 15 16 17 17 18 18 18 18 18 19 20 22 23 24 25 24 23 22 21 22 22 22 22 22 21 19 18 17 17 17 17 18 18 18 18 17 16 15 13 12 15
Wind_Direction
4 3 2 1 0 359 358 357 359 359 359 358 357 354 350 340 326 317 313 310 305 307 314 327 339 345 345 340 333 327 317 290 238 205 187 167 143 118 217 194 185 177 172 170 172 171 170 169 169 168 167 167 165 164 165 165 166 167 169 170 169 167 164 162 162 162 162 163 163
4 4 4 4 3 2 1 360 1 2 3 3 3 2 1 359 354 352 351 350 345 340 337 340 348 352 350 343 336 331 325 307 262 224 199 169 140 117 133 188 185 175 164 161 162 162 162 162 163 164 164 164 163 164 166 168 168 167 167 167 167 166 164 162 162 163 162 162 163
6 6 6 5 5 4 3 1 1 3 4 6 6 7 7 6 6 7 8 10 10 8 4 359 357 357 355 348 343 337 326 304 260 226 201 168 143 130 145 190 199 187 170 164 162 161 159 158 158 158 158 159 159 160 162 165 165 164 162 163 163 163 162 161 162 162 161 160 162
7 7 6 6 5 4 3 2 2 4 6 8 9 10 10 9 9 10 10 12 14 16 18 16 10 1 356 355 352 348 344 326 245 203 180 161 153 152 159 173 193 193 180 169 165 162 158 155 153 153 154 155 155 154 153 155 157 158 158 159 160 160 161 161 161 160 159 159 161
7 7 7 6 5 5 5 5 5 6 8 10 12 12 12 11 11 12 13 13 14 16 20 23 21 13 2 357 356 357 360 8 33 150 153 154 158 164 171 181 184 187 188 178 170 165 159 152 148 147 150 152 151 148 148 151 153 154 155 157 158 159 160 160 160 159 159 159 161
6 7 8 8 8 7 8 8 9 10 11 14 15 14 14 13 12 13 14 15 15 17 20 23 25 25 20 13 6 2 2 6 36 117 139 148 156 164 173 183 188 187 184 181 174 167 160 152 146 146 149 150 148 148 151 154 153 153 153 155 158 159 160 159 160 160 159 159 161
7 8 10 11 10 10 10 11 12 13 15 17 16 16 15 15 14 14 16 18 19 19 19 21 24 26 28 29 28 25 21 21 56 104 129 144 155 162 170 177 180 178 175 174 173 171 166 162 152 149 150 151 149 150 154 158 158 156 155 155 158 160 161 161 162 162 161 161 161
11 12 12 13 13 13 12 13 14 15 17 18 17 16 16 16 16 16 18 20 21 21 21 21 22 24 26 27 30 33 37 40 49 98 124 139 150 160 169 174 173 171 171 172 172 172 172 170 161 153 152 155 155 157 160 163 163 160 156 155 158 161 162 163 163 163 164 164 163
13 14 14 15 16 16 15 15 16 17 18 19 19 18 18 18 18 18 18 19 22 24 24 23 23 24 24 25 26 29 34 41 48 68 180 168 166 173 181 180 174 170 168 169 169 170 169 167 161 159 163 169 168 166 166 167 165 161 158 156 158 161 163 163 163 164 166 167 166
13 13 14 15 16 17 18 17 18 18 19 19 20 20 20 20 20 19 19 20 24 27 27 25 25 25 25 24 24 26 29 34 42 55 92 171 188 190 191 188 182 174 169 167 167 166 165 163 161 169 183 190 180 172 168 169 168 164 161 160 160 160 160 160 162 164 166 167 168
13 14 14 14 15 17 19 19 19 19 19 19 19 20 20 20 20 20 21 24 26 27 28 28 27 26 26 26 25 25 26 29 36 44 56 84 145 173 183 186 185 180 175 172 171 169 167 166 168 179 189 188 178 171 169 171 171 169 166 165 164 162 160 160 163 165 167 169 169
14 15 15 15 15 17 19 20 19 19 19 18 18 19 19 20 20 21 24 26 27 27 28 29 29 28 27 27 26 26 25 27 32 38 44 52 67 97 135 160 174 179 179 179 180 180 179 180 180 181 181 178 174 171 171 173 174 173 170 168 167 166 164 164 165 167 168 169 168
16 16 16 16 16 17 18 19 19 18 18 17 17 18 18 19 21 23 24 25 26 27 28 29 30 31 30 29 29 27 26 25 28 32 38 42 46 54 65 83 113 145 165 175 182 185 185 183 182 181 178 174 173 174 175 177 177 174 172 170 170 169 169 169 169 169 169 168 168
18 18 18 18 18 18 18 18 18 17 16 16 16 17 17 19 21 23 24 25 26 27 28 29 30 32 33 33 32 30 27 24 25 27 30 32 35 37 42 48 57 73 102 139 167 179 181 179 177 177 176 175 175 178 181 183 181 179 177 175 174 174 174 174 173 171 169 168 169
18 19 19 19 19 19 18 17 16 15 15 15 15 16 17 18 20 23 24 25 26 28 29 29 30 32 34 36 36 34 30 25 24 24 25 26 26 28 30 32 34 38 46 60 98 152 172 177 177 179 179 180 182 185 188 188 186 185 185 184 183 181 179 177 175 173 172 172 172
17 18 19 19 19 18 18 17 16 15 14 14 15 16 17 18 20 22 23 24 25 27 29 29 30 31 33 36 38 37 34 28 25 24 24 22 22 21 22 23 24 25 26 29 38 65 147 176 183 184 185 186 187 189 190 190 189 188 189 188 187 184 182 179 177 176 176 176 175
16 17 17 18 18 17 17 17 16 15 14 14 15 15 16 17 20 22 23 24 25 26 27 29 30 31 32 34 36 37 35 31 28 26 23 21 18 17 18 18 19 20 19 20 22 27 41 159 190 192 190 188 188 188 189 189 190 191 190 189 188 186 184 182 180 179 178 178 178
16 16 17 17 16 16 16 16 16 16 15 15 15 15 16 18 19 21 23 25 25 25 26 28 30 32 33 33 34 35 34 32 30 28 26 21 17 14 13 14 15 16 17 17 16 15 12 1 241 208 198 192 189 189 192 193 194 194 193 192 189 187 185 183 181 181 180 180 179
15 15 15 15 15 15 15 16 16 17 17 16 16 16 17 18 20 22 23 25 26 26 26 27 30 32 33 33 33 34 34 33 32 32 30 26 21 16 12 10 11 13 15 17 16 14 9 359 332 257 217 202 195 194 195 197 197 196 195 193 190 188 186 183 182 182 182 181 181
14 14 14 14 14 15 15 16 17 18 19 19 19 18 18 19 21 23 23 23 25 27 28 29 30 31 32 33 33 33 33 34 34 34 33 32 28 24 18 13 11 12 14 16 18 17 13 6 353 317 249 217 203 197 196 196 196 195 193 191 189 187 185 184 182 181 181 181 181
14 14 14 14 15 15 16 17 18 20 22 22 22 21 19 20 22 23 23 23 25 27 28 29 30 30 30 31 31 31 32 33 34 35 35 36 34 32 29 25 21 18 15 15 17 17 15 12 4 347 297 235 211 200 195 194 192 190 188 185 184 184 183 182 181 179 179 179 179
15 15 15 16 17 17 18 19 20 21 23 24 24 22 21 20 21 22 23 24 25 26 27 28 29 29 29 29 29 29 31 33 35 36 36 37 37 37 36 34 31 27 22 16 12 12 13 12 10 2 336 251 210 198 192 188 185 183 180 177 176 177 177 178 177 176 176 177 178
15 16 17 17 18 19 20 21 22 23 23 23 23 22 21 19 19 21 23 24 24 24 25 26 26 27 28 29 29 30 31 32 35 36 37 37 36 36 35 34 33 30 25 20 13 5 2 6 9 9 4 336 204 189 185 183 181 177 174 171 170 169 170 172 172 172 172 173 176
16 17 18 18 19 19 20 21 22 22 22 22 22 21 20 19 18 19 20 22 23 23 22 22 23 24 26 28 29 30 30 31 31 33 35 35 35 33 32 31 30 29 27 24 21 14 1 354 359 5 9 8 0 217 194 191 187 183 177 172 169 167 168 169 170 169 168 168 171
17 18 19 19 19 19 19 20 21 21 21 22 22 21 20 18 17 17 18 19 20 21 20 20 20 21 23 25 26 28 29 30 29 29 30 31 32 32 30 28 27 27 26 25 26 25 16 359 350 354 2 7 5 352 308 244 216 202 193 185 178 174 172 172 172 172 169 167 166
17 18 19 19 19 19 19 19 19 20 21 23 23 22 20 18 17 16 16 17 18 18 18 18 18 19 20 21 23 25 27 28 28 27 27 27 28 29 29 26 24 23 23 24 26 28 27 18 1 347 346 356 0 356 336 292 254 230 214 202 195 187 181 176 176 174 172 168 163
16 18 18 19 19 19 18 18 18 20 21 22 22 21 20 20 18 16 16 16 16 16 17 17 17 17 17 18 20 21 23 24 25 26 26 26 26 26 26 24 22 21 21 21 23 26 28 27 20 4 340 329 337 344 339 306 267 248 232 212 204 199 192 183 177 172 169 167 165
16 17 18 19 19 19 18 18 18 19 20 21 21 21 21 21 20 18 16 15 15 15 15 15 14 14 15 16 17 19 20 21 22 23 24 25 25 25 24 23 20 19 19 20 21 22 24 24 25 21 4 327 305 302 307 299 263 246 234 217 209 204 198 193 184 177 172 171 174
14 15 17 19 20 19 18 18 18 18 19 20 21 22 23 22 21 19 16 15 14 14 13 11 11 12 14 14 15 16 17 18 19 20 22 23 24 24 23 22 19 18 18 18 19 20 20 20 20 21 18 358 308 281 271 263 247 236 231 224 218 210 205 203 201 195 189 186 186
12 14 16 18 19 19 19 18 18 18 19 20 22 22 22 22 21 19 16 14 13 11 10 9 10 11 13 13 13 14 15 15 16 18 19 20 21 21 22 21 19 18 17 16 16 17 17 17 17 16 14 9 335 281 263 253 243 234 229 225 222 216 212 211 211 207 203 198 195
10 12 14 16 17 18 18 17 17 18 19 21 21 21 21 21 19 18 15 12 11 9 9 9 10 11 11 12 12 12 13 13 14 15 16 17 17 18 20 20 19 18 16 14 14 15 15 15 15 16 14 9 354 304 270 255 246 239 232 227 221 217 215 214 215 213 209 204 201
9 10 11 13 14 16 16 16 16 18 20 21 21 21 20 18 17 16 15 12 11 10 10 10 10 9 9 10 10 11 11 12 12 12 13 14 14 15 17 19 19 17 15 13 13 14 13 12 12 14 17 17 15 1 319 277 255 246 240 235 227 220 215 213 213 213 212 208 207
7 8 9 11 12 13 14 15 16 17 19 21 21 20 18 16 15 15 14 13 11 10 10 9 8 8 7 7 8 8 9 9 10 10 11 12 12 13 14 16 17 15 14 13 14 14 12 11 10 11 15 20 22 21 11 344 290 260 247 241 237 231 222 214 210 209 210 210 210
4 5 7 9 10 11 13 14 15 17 18 20 21 20 18 15 13 12 11 11 10 9 9 9 9 8 7 7 7 7 7 7 7 9 10 11 11 11 11 13 14 14 14 14 14 14 12 10 8 8 11 16 20 22 19 13 353 307 267 250 244 240 234 225 216 210 207 207 210
2 3 5 6 7 9 11 14 16 17 18 19 18 18 16 15 13 11 9 7 7 7 8 8 8 8 8 8 8 8 7 6 6 7 8 10 10 9 8 9 12 14 15 16 15 15 13 10 8 6 8 12 17 19 18 17 12 358 325 279 256 247 242 237 229 222 214 210 211
1 2 3 4 5 7 10 13 15 17 17 17 16 15 14 12 12 11 8 5 5 6 7 7 8 8 8 8 8 8 7 6 5 5 7 9 9 7 5 6 9 13 15 16 15 14 13 11 8 6 6 9 13 15 15 14 13 9 0 337 294 263 249 244 240 236 230 224 221
-0 0 1 2 4 7 9 12 15 15 15 15 14 14 12 10 10 9 8 5 5 5 6 6 7 7 7 6 6 6 5 5 5 5 6 8 9 6 3 3 6 10 13 15 15 13 12 10 9 8 7 7 9 10 11 11 9 9 7 2 346 314 275 255 247 243 241 238 235
359 359 359 1 3 6 9 12 14 14 13 13 13 13 11 10 9 8 8 6 5 4 3 4 5 6 5 3 3 3 4 5 6 6 7 7 9 7 3 1 5 9 12 14 14 12 10 9 10 9 8 8 8 8 7 6 5 4 4 4 1 352 331 292 262 249 244 243 242
357 358 359 0 3 6 9 12 14 14 13 13 12 12 11 10 9 8 8 8 7 5 3 3 3 3 2 1 1 2 3 4 7 8 8 8 8 7 4 2 4 8 11 13 13 11 9 8 9 9 8 7 7 7 6 3 1 360 359 359 358 357 353 341 309 272 253 245 243
355 357 359 1 3 6 9 12 14 15 15 16 14 12 10 8 7 6 7 8 8 7 5 3 3 3 3 2 2 1 1 3 6 8 8 9 9 8 6 5 5 7 10 12 11 9 6 6 6 7 7 6 6 7 6 3 359 356 355 355 353 351 350 349 342 320 284 257 246
353 355 358 2 5 7 9 11 12 13 15 18 17 13 10 8 8 7 6 5 6 7 7 5 3 4 5 5 3 2 1 1 3 6 7 9 10 9 8 7 6 7 9 11 10 7 4 3 3 4 4 3 3 4 6 3 358 354 351 349 348 346 344 344 344 340 324 292 261
Height
687 684 683 681 679 677 674 672 670 668 665 663 661 658 657 655 653 652 650 649 648 648 647 646 646 645 645 645 644 644 643 644 644 645 645 645 645 644 644 643 643 643 643 642 642 643 643 643 644 645 647 648 649 651 653 654 655 656 657 658 658 659 660 661 663 664 665 667 668
687 685 683 682 679 677 675 673 671 668 666 664 662 660 658 656 654 653 651 650 649 648 647 646 646 646 646 646 645 644 643 644 644 645 645 644 644 643 643 642 642 642 642 642 643 643 644 644 645 646 648 649 651 652 654 655 656 657 658 658 658 659 660 661 662 663 664 666 668
688 686 684 682 680 678 676 674 672 669 667 665 663 661 659 657 655 653 652 651 649 648 647 646 646 646 646 646 646 645 644 644 644 645 644 644 643 643 642 641 641 642 642 643 643 644 645 645 646 647 648 650 651 653 654 656 657 658 658 659 659 660 660 661 662 663 664 665 667
689 687 685 683 681 680 678 676 673 671 668 667 664 662 660 658 656 654 653 651 650 648 648 647 646 646 646 646 646 646 646 645 645 645 645 644 643 643 643 643 642 642 643 643 644 645 646 646 647 648 649 651 652 653 655 656 657 658 659 660 661 661 661 662 662 663 664 665 667
690 688 687 685 683 681 679 677 675 673 670 668 666 663 661 659 657 655 654 652 651 650 649 648 647 646 646 646 646 646 646 646 646 646 646 645 644 644 644 644 644 643 644 644 645 646 647 648 648 649 650 652 653 654 655 656 658 659 660 661 662 662 662 663 663 663 664 665 667
692 690 688 686 684 682 680 678 676 674 672 669 667 664 663 661 659 657 655 654 653 652 650 649 648 647 647 646 646 647 647 647 647 647 647 647 646 646 646 646 645 645 645 646 647 647 648 648 649 651 652 653 654 654 655 656 658 659 660 662 662 663 663 663 664 664 665 666 667
694 691 689 687 685 683 681 679 677 675 673 670 668 666 664 663 661 659 657 655 653 652 651 650 649 648 648 647 647 647 647 648 648 648 648 648 648 648 647 647 647 647 648 648 648 649 649 650 651 652 653 654 655 656 656 657 658 659 660 662 662 663 663 664 664 664 665 666 668
694 692 690 688 686 683 682 680 678 676 673 672 670 668 666 664 662 660 658 656 655 654 653 652 651 650 649 649 648 648 648 648 649 649 649 649 649 649 648 648 649 649 649 650 650 650 651 651 652 653 654 655 656 657 657 658 658 659 660 661 662 663 663 664 664 665 666 667 668
694 692 690 688 686 684 683 681 679 677 675 673 672 670 668 666 664 662 660 658 657 656 654 653 653 652 651 651 650 650 649 649 649 649 649 649 649 649 649 649 650 650 650 651 651 651 651 652 653 654 655 656 657 657 658 658 659 659 661 662 662 663 663 664 664 665 666 668 669
695 693 691 689 687 685 684 682 680 678 677 675 673 671 669 668 666 664 663 661 659 657 656 655 654 653 653 653 652 652 651 651 651 651 651 650 650 650 650 650 650 651 651 651 652 652 652 653 653 654 656 657 658 658 658 658 659 660 661 662 662 663 663 663 664 665 666 668 669
696 694 692 690 688 687 685 683 681 679 678 676 674 673 671 669 668 666 665 663 661 659 658 657 656 655 655 654 654 653 653 653 653 652 652 652 652 651 651 651 651 651 652 652 652 652 653 653 654 655 656 658 658 658 658 659 660 660 661 662 662 663 663 663 664 665 667 668 669
697 695 693 691 689 688 686 684 682 681 679 677 676 674 673 671 670 668 666 664 663 661 660 659 658 657 657 656 656 656 655 655 654 654 654 653 653 653 653 653 653 653 653 653 653 653 653 654 654 655 656 658 658 658 659 659 660 660 661 662 662 662 663 663 664 665 666 667 668
698 696 694 692 690 688 686 685 683 682 680 679 677 676 674 673 671 670 668 666 665 664 663 661 660 659 658 658 658 658 657 657 656 656 655 655 655 654 654 654 654 654 654 654 654 654 654 654 654 655 657 658 658 658 659 659 660 660 661 661 662 662 663 663 663 664 665 666 667
698 697 695 693 691 689 687 686 684 683 682 680 679 678 676 675 673 672 670 668 667 666 665 664 663 662 661 660 659 659 659 658 658 658 658 657 657 656 656 656 656 655 655 655 655 655 655 655 655 656 657 658 658 658 659 659 660 660 660 661 661 662 662 663 663 664 664 665 667
699 697 696 694 692 690 688 687 686 685 683 682 681 679 678 676 675 673 672 671 669 668 667 666 665 664 663 662 661 661 660 660 660 659 659 659 658 658 658 658 657 657 657 657 657 657 657 657 657 658 658 658 658 659 659 660 660 661 661 661 661 662 662 663 663 664 664 665 666
700 698 696 695 693 692 690 689 688 687 685 684 683 681 679 678 677 675 674 673 672 670 669 668 667 666 665 663 662 662 662 662 661 661 661 660 660 660 660 659 659 659 659 659 658 658 658 658 659 659 659 659 660 660 660 660 661 661 662 661 661 662 662 663 663 664 664 665 666
701 699 698 696 695 693 692 691 690 689 687 686 684 683 682 680 678 677 676 674 673 672 671 670 669 668 667 665 664 663 663 663 663 663 662 662 662 662 661 661 661 661 660 660 660 660 660 660 660 660 661 661 661 661 661 661 661 661 661 662 662 662 662 663 663 664 664 665 666
702 701 699 698 696 695 694 693 692 690 689 688 686 685 683 682 680 679 677 676 675 673 672 671 670 669 668 667 666 665 664 664 664 664 664 664 663 663 663 663 662 662 662 662 661 661 662 662 662 662 662 662 662 662 662 662 662 662 662 663 663 663 663 663 663 664 665 665 666
704 702 701 699 698 697 696 694 693 692 691 689 688 687 685 683 682 680 679 677 676 675 673 672 671 669 668 668 667 667 666 666 666 665 665 665 665 664 664 663 663 663 663 663 663 663 663 663 662 662 663 663 663 663 662 662 662 663 663 664 664 664 664 664 664 665 665 666 666
706 704 703 701 700 698 697 696 695 693 692 691 689 688 687 685 683 682 680 679 678 677 675 673 672 671 670 670 669 669 668 668 668 667 666 666 666 666 665 665 664 664 663 663 663 663 663 663 663 663 663 663 663 663 663 663 663 664 664 664 665 665 665 665 665 666 666 667 667
707 706 704 703 701 700 698 697 696 695 693 692 691 689 688 687 685 684 683 681 680 678 677 676 674 673 673 672 672 671 671 670 669 669 668 667 667 667 666 666 666 665 665 664 664 664 664 664 664 664 664 664 664 664 664 664 664 664 665 665 665 665 666 666 667 667 667 668 668
709 707 706 704 703 701 700 698 697 695 694 693 691 690 689 688 687 686 684 683 682 680 679 678 677 676 675 675 674 673 673 672 671 670 669 668 668 667 667 667 667 667 666 666 665 664 664 664 664 664 664 664 664 664 664 664 665 665 665 666 666 666 667 667 667 668 668 668 669
710 708 707 705 704 702 700 699 697 696 694 693 692 691 690 689 688 687 686 684 683 682 681 680 679 678 678 677 676 675 674 673 672 671 670 669 669 668 668 668 667 667 667 666 666 665 665 664 664 664 665 665 665 665 665 665 665 666 666 666 666 667 667 668 668 668 668 669 669
711 709 708 706 704 703 701 700 698 696 695 693 693 692 691 690 689 688 687 685 684 683 683 682 681 680 679 678 677 676 675 674 673 672 671 671 670 669 669 668 668 667 667 666 666 666 665 665 664 664 665 665 665 665 665 666 666 666 666 667 667 667 668 668 668 668 669 669 670
712 710 708 707 705 703 702 700 699 697 696 695 694 693 691 690 689 688 688 686 685 685 684 683 682 681 680 679 678 678 677 676 675 674 673 672 671 671 670 670 669 668 668 668 667 666 666 666 665 665 665 665 665 666 666 666 667 667 667 667 667 668 668 668 668 669 669 670 670
712 711 709 708 706 704 703 701 700 699 697 696 695 693 692 691 690 689 688 687 687 686 685 684 683 682 681 680 679 678 678 677 676 676 675 674 673 672 672 672 671 670 670 669 668 668 667 667 666 666 666 666 666 666 666 667 667 668 668 668 668 668 668 668 669 669 670 670 671
713 711 710 708 707 705 704 703 701 700 698 697 696 695 693 693 692 690 689 688 688 687 686 685 684 683 683 682 681 680 679 678 678 677 676 676 675 674 673 673 673 672 672 671 670 669 668 668 668 667 667 666 666 666 667 667 668 668 668 668 668 668 669 669 669 670 670 670 671
713 712 711 709 708 706 705 703 702 700 699 698 697 696 695 694 693 692 691 689 688 687 686 686 685 685 684 683 682 682 681 680 679 678 678 677 676 676 675 675 674 674 673 672 672 671 670 669 668 668 668 668 667 667 667 667 668 668 668 668 669 669 669 669 670 670 670 670 671
714 713 711 710 708 707 706 704 703 702 701 699 698 698 696 695 693 693 692 691 689 689 688 688 687 686 685 684 684 683 682 681 681 680 679 678 677 677 676 676 675 674 674 673 673 672 671 670 669 668 668 668 668 668 667 667 667 668 668 668 669 669 669 670 670 670 670 670 670
714 713 712 711 709 708 707 705 704 703 702 701 699 698 697 696 695 694 693 693 692 691 691 690 689 688 687 686 685 684 683 682 682 681 680 679 678 678 677 677 676 675 674 674 673 673 672 671 670 669 668 668 668 668 668 667 667 667 668 668 668 669 669 670 670 670 670 670 670
715 714 713 711 710 709 708 706 705 704 703 701 700 699 698 698 697 696 695 695 694 693 692 691 690 689 688 687 686 685 684 683 683 682 681 680 679 679 678 678 677 676 675 675 674 673 672 672 671 670 669 668 668 668 668 667 667 667 667 667 668 668 669 669 669 670 670 670 670
715 714 713 712 710 709 708 707 705 704 703 702 701 700 699 699 698 698 697 697 695 694 693 692 691 690 689 688 687 686 685 684 683 683 682 681 681 680 679 678 678 677 676 675 674 674 673 672 671 670 669 668 668 668 668 668 667 667 667 667 667 667 668 668 669 669 670 670 670
716 714 713 712 711 710 708 707 706 705 704 703 702 701 701 700 699 699 698 698 697 696 695 693 693 692 690 689 688 688 687 686 685 684 683 682 681 680 680 679 678 677 677 676 675 674 673 673 672 670 669 669 668 668 667 667 667 667 667 666 666 667 667 668 668 669 669 669 670
716 715 714 713 711 710 709 708 706 705 704 703 703 702 702 701 700 700 699 699 698 698 697 696 695 694 693 692 691 689 688 687 686 685 684 683 682 681 680 679 679 678 677 677 676 675 674 673 672 671 670 669 668 668 667 667 667 667 667 666 666 666 666 667 667 668 668 669 669
716 715 714 713 712 711 709 708 707 706 705 704 703 703 702 702 701 701 701 700 699 699 698 697 696 695 694 693 692 691 689 688 687 686 685 683 683 682 681 680 679 678 678 677 676 675 674 673 672 671 670 669 668 668 668 667 667 667 667 667 666 666 666 666 667 667 668 668 669
717 716 714 713 712 711 710 708 708 706 705 704 704 703 703 703 702 702 702 701 700 699 698 698 697 696 695 694 693 692 691 689 688 687 686 684 683 682 681 680 679 679 678 677 677 676 675 674 673 672 670 669 668 668 668 667 667 667 666 666 666 666 666 666 666 666 667 667 668
717 716 715 714 713 712 710 709 708 707 706 705 705 704 704 703 703 703 702 701 700 700 699 698 698 697 696 695 694 693 692 691 689 688 687 685 684 683 683 681 680 679 678 678 677 676 676 675 674 673 671 670 669 668 668 668 667 667 666 666 666 666 666 666 665 665 666 666 667
718 717 716 714 713 712 711 710 709 708 707 706 706 705 705 704 703 703 703 702 701 701 700 699 698 698 697 696 695 694 693 692 691 689 688 687 686 685 684 682 681 680 679 678 677 677 677 676 675 674 673 672 670 669 668 668 668 667 667 666 666 665 666 665 665 665 665 665 665
718 717 716 715 714 713 712 710 709 708 708 707 706 706 705 704 704 704 703 703 702 702 701 700 699 698 698 697 696 695 694 693 692 690 689 688 687 686 685 683 682 681 680 679 678 677 677 676 676 675 674 673 672 671 670 669 668 668 667 666 666 665 665 665 665 665 664 664 664
718 717 716 715 714 713 712 711 710 709 708 708 707 706 706 705 705 705 704 703 703 702 702 701 700 699 698 697 696 695 694 693 692 691 690 689 688 687 686 684 683 682 680 679 678 678 677 677 676 675 674 673 673 672 671 670 669 668 667 667 666 665 664 664 664 664 664 664 663
718 717 717 716 715 713 713 711 711 710 709 708 708 707 707 706 705 705 704 704 703 703 702 701 700 700 699 698 697 696 695 693 693 691 690 689 688 687 686 685 683 682 681 680 679 678 678 677 676 676 675 674 673 672 672 671 670 669 668 667 666 666 665 664 663 663 663 663 663